• en Suisse
  • Liste des pays
  • À 7 jours
  • Température de l'eau
  • Carte satellitaire
  • Carte météo
  • Widgets météo
  • user-avatar
    Se connecter

    Météo par heure à Northampton

    Ce jour, 14 Décembre, Jeudi

    Heure Température Précipitation Vent Pression Humidité
    00:00 -2°C° 0 mm 6 m/s 733 mmHg 81%
    01:00 -1°C° 0 mm 7 m/s 734 mmHg 81%
    02:00 -1°C° 0 mm 7 m/s 734 mmHg 81%
    03:00 0°C° 0 mm 7 m/s 734 mmHg 81%
    04:00 0°C° 0 mm 7 m/s 734 mmHg 81%
    05:00 -1°C° 0 mm 7 m/s 734 mmHg 81%
    06:00 0°C° 0 mm 5 m/s 734 mmHg 85%
    07:00 0°C° 0 mm 5 m/s 734 mmHg 84%
    08:00 0°C° 0 mm 5 m/s 734 mmHg 84%
    09:00 -1°C° 0 mm 6 m/s 734 mmHg 83%
    10:00 +1°C° 0 mm 6 m/s 733 mmHg 81%
    11:00 +1°C° 0 mm 6 m/s 733 mmHg 78%
    12:00 +2°C° 0 mm 5 m/s 733 mmHg 80%
    13:00 +2°C° 0 mm 5 m/s 732 mmHg 80%
    14:00 +2°C° 0 mm 5 m/s 732 mmHg 81%
    15:00 +1°C° 0 mm 5 m/s 732 mmHg 81%
    16:00 +1°C° 0 mm 4 m/s 732 mmHg 83%
    17:00 0°C° 0 mm 4 m/s 731 mmHg 85%
    18:00 0°C° 0 mm 4 m/s 731 mmHg 87%
    19:00 0°C° 0 mm 4 m/s 731 mmHg 88%
    20:00 0°C° 0 mm 4 m/s 732 mmHg 89%
    21:00 0°C° 0 mm 4 m/s 732 mmHg 91%
    22:00 0°C° 0 mm 4 m/s 732 mmHg 90%
    23:00 0°C° 0 mm 4 m/s 732 mmHg 89%

    Demain, 15 Décembre, Vendredi

    Heure Température Précipitation Vent Pression Humidité
    00:00 0°C° 0 mm 4 m/s 733 mmHg 89%
    01:00 0°C° 0,1 mm 4 m/s 733 mmHg 89%
    02:00 0°C° 0,1 mm 5 m/s 733 mmHg 90%
    03:00 0°C° 0,1 mm 5 m/s 733 mmHg 90%
    04:00 0°C° 0,2 mm 5 m/s 734 mmHg 89%
    05:00 0°C° 0,2 mm 5 m/s 734 mmHg 89%
    06:00 0°C° 0,2 mm 5 m/s 735 mmHg 88%
    07:00 -1°C° 0,1 mm 6 m/s 736 mmHg 86%
    08:00 -1°C° 0,1 mm 6 m/s 737 mmHg 84%
    09:00 -1°C° 0,1 mm 7 m/s 738 mmHg 82%
    10:00 0°C° 0 mm 7 m/s 739 mmHg 80%
    11:00 +1°C° 0 mm 8 m/s 740 mmHg 79%
    12:00 +2°C° 0 mm 8 m/s 741 mmHg 77%
    13:00 +2°C° 0 mm 7 m/s 742 mmHg 78%
    14:00 +2°C° 0 mm 6 m/s 743 mmHg 80%
    15:00 +2°C° 0 mm 6 m/s 743 mmHg 82%
    16:00 +2°C° 0 mm 6 m/s 744 mmHg 82%
    17:00 +1°C° 0 mm 6 m/s 745 mmHg 83%
    18:00 +1°C° 0 mm 6 m/s 746 mmHg 84%
    19:00 0°C° 0 mm 5 m/s 747 mmHg 84%
    20:00 0°C° 0 mm 5 m/s 748 mmHg 84%
    21:00 0°C° 0 mm 5 m/s 749 mmHg 84%
    22:00 -1°C° 0 mm 5 m/s 749 mmHg 84%
    23:00 -1°C° 0 mm 4 m/s 750 mmHg 85%

    Après-demain, 16 Décembre, Samedi

    Heure Température Précipitation Vent Pression Humidité
    00:00 -2°C° 0 mm 4 m/s 750 mmHg 85%
    01:00 -2°C° 0 mm 4 m/s 751 mmHg 84%
    02:00 -2°C° 0 mm 4 m/s 751 mmHg 84%
    03:00 -2°C° 0 mm 4 m/s 752 mmHg 83%
    04:00 -2°C° 0 mm 4 m/s 752 mmHg 83%
    05:00 -1°C° 0 mm 3 m/s 752 mmHg 83%
    06:00 -1°C° 0 mm 3 m/s 753 mmHg 83%
    07:00 -1°C° 0 mm 3 m/s 753 mmHg 83%
    08:00 0°C° 0 mm 3 m/s 754 mmHg 82%
    09:00 0°C° 0 mm 3 m/s 754 mmHg 82%
    10:00 0°C° 0,1 mm 4 m/s 754 mmHg 81%
    11:00 +1°C° 0,1 mm 4 m/s 754 mmHg 79%
    12:00 +3°C° 0,1 mm 4 m/s 755 mmHg 78%
    13:00 +3°C° 0 mm 3 m/s 755 mmHg 80%
    14:00 +2°C° 0 mm 3 m/s 755 mmHg 82%
    15:00 +2°C° 0 mm 3 m/s 755 mmHg 84%
    16:00 +2°C° 0 mm 2 m/s 756 mmHg 85%
    17:00 +1°C° 0 mm 2 m/s 756 mmHg 86%
    18:00 +1°C° 0 mm 2 m/s 757 mmHg 87%
    19:00 +1°C° 0 mm 2 m/s 757 mmHg 87%
    20:00 -1°C° 0 mm 2 m/s 758 mmHg 87%
    21:00 -1°C° 0 mm 2 m/s 758 mmHg 87%
    22:00 +1°C° 0 mm 2 m/s 759 mmHg 88%
    23:00 +1°C° 0 mm 2 m/s 759 mmHg 90%

    17 Décembre, Dimanche

    Heure Température Précipitation Vent Pression Humidité
    00:00 +1°C° 0 mm 2 m/s 759 mmHg 92%
    01:00 +1°C° 0 mm 2 m/s 759 mmHg 93%
    02:00 0°C° 0 mm 3 m/s 759 mmHg 94%
    03:00 0°C° 0 mm 3 m/s 759 mmHg 94%
    04:00 0°C° 0 mm 3 m/s 759 mmHg 95%
    05:00 0°C° 0 mm 3 m/s 759 mmHg 95%
    06:00 0°C° 0 mm 3 m/s 759 mmHg 95%
    07:00 0°C° 0 mm 3 m/s 760 mmHg 95%
    08:00 +1°C° 0 mm 3 m/s 760 mmHg 95%
    09:00 +1°C° 0 mm 3 m/s 760 mmHg 95%
    10:00 +1°C° 0 mm 4 m/s 760 mmHg 92%
    11:00 +4°C° 0 mm 4 m/s 760 mmHg 89%
    12:00 +5°C° 0 mm 5 m/s 760 mmHg 86%
    13:00 +5°C° 0 mm 5 m/s 759 mmHg 87%
    14:00 +5°C° 0 mm 5 m/s 759 mmHg 88%
    15:00 +5°C° 0 mm 5 m/s 759 mmHg 90%
    16:00 +4°C° 0 mm 6 m/s 759 mmHg 90%
    17:00 +4°C° 0 mm 6 m/s 759 mmHg 90%
    18:00 +4°C° 0 mm 6 m/s 759 mmHg 90%
    19:00 +5°C° 0 mm 6 m/s 759 mmHg 89%
    20:00 +5°C° 0 mm 7 m/s 759 mmHg 88%
    21:00 +5°C° 0 mm 7 m/s 759 mmHg 87%
    22:00 +5°C° 0 mm 6 m/s 760 mmHg 88%
    23:00 +5°C° 0 mm 6 m/s 760 mmHg 88%

    18 Décembre, Lundi

    Heure Température Précipitation Vent Pression Humidité
    00:00 +5°C° 0 mm 6 m/s 760 mmHg 89%
    01:00 +5°C° 0 mm 6 m/s 760 mmHg 90%
    02:00 +6°C° 0 mm 5 m/s 760 mmHg 90%
    03:00 +6°C° 0 mm 5 m/s 760 mmHg 91%
    04:00 +6°C° 0 mm 5 m/s 761 mmHg 92%
    05:00 +6°C° 0 mm 4 m/s 761 mmHg 93%
    06:00 +6°C° 0 mm 4 m/s 761 mmHg 93%
    07:00 +6°C° 0 mm 4 m/s 761 mmHg 94%
    08:00 +5°C° 0 mm 3 m/s 762 mmHg 94%
    09:00 +5°C° 0 mm 3 m/s 762 mmHg 95%
    10:00 +7°C° 0 mm 3 m/s 762 mmHg 94%
    11:00 +8°C° 0 mm 3 m/s 763 mmHg 93%
    12:00 +8°C° 0 mm 2 m/s 763 mmHg 92%
    13:00 +8°C° 0 mm 2 m/s 763 mmHg 93%
    14:00 +8°C° 0 mm 2 m/s 762 mmHg 95%
    15:00 +8°C° 0 mm 2 m/s 762 mmHg 96%
    16:00 +8°C° 0 mm 2 m/s 763 mmHg 96%
    17:00 +8°C° 0 mm 2 m/s 763 mmHg 97%
    18:00 +7°C° 0 mm 2 m/s 763 mmHg 97%
    19:00 +7°C° 0 mm 2 m/s 763 mmHg 97%
    20:00 +8°C° 0 mm 2 m/s 763 mmHg 97%
    21:00 +8°C° 0 mm 2 m/s 764 mmHg 97%
    22:00 +8°C° 0 mm 2 m/s 764 mmHg 97%
    23:00 +8°C° 0 mm 2 m/s 764 mmHg 97%

    19 Décembre, Mardi

    Heure Température Précipitation Vent Pression Humidité
    00:00 +8°C° 0 mm 2 m/s 764 mmHg 97%
    01:00 +8°C° 0 mm 2 m/s 764 mmHg 97%
    02:00 +8°C° 0 mm 2 m/s 764 mmHg 97%
    03:00 +8°C° 0 mm 2 m/s 764 mmHg 97%
    04:00 +8°C° 0 mm 2 m/s 764 mmHg 97%
    05:00 +9°C° 0 mm 2 m/s 764 mmHg 97%
    06:00 +9°C° 0 mm 2 m/s 764 mmHg 97%
    07:00 +9°C° 0 mm 2 m/s 764 mmHg 97%
    08:00 +9°C° 0 mm 2 m/s 765 mmHg 97%
    09:00 +9°C° 0 mm 2 m/s 765 mmHg 97%
    10:00 +10°C° 0 mm 3 m/s 765 mmHg 96%
    11:00 +11°C° 0 mm 3 m/s 765 mmHg 96%
    12:00 +11°C° 0 mm 3 m/s 765 mmHg 95%
    13:00 +11°C° 0 mm 3 m/s 765 mmHg 95%
    14:00 +11°C° 0 mm 3 m/s 765 mmHg 96%
    15:00 +11°C° 0 mm 3 m/s 765 mmHg 96%
    16:00 +11°C° 0 mm 3 m/s 765 mmHg 97%
    17:00 +11°C° 0 mm 3 m/s 765 mmHg 97%
    18:00 +10°C° 0 mm 3 m/s 765 mmHg 97%
    19:00 +10°C° 0 mm 3 m/s 766 mmHg 97%
    20:00 +10°C° 0 mm 3 m/s 766 mmHg 96%
    21:00 +10°C° 0 mm 3 m/s 766 mmHg 96%
    22:00 +10°C° 0 mm 3 m/s 766 mmHg 96%
    23:00 +10°C° 0 mm 3 m/s 766 mmHg 96%
    Voir plus